Weather History for Buffalo, WY

Change the Weather History Date:

Friday, December 21, 2012

  Actual Average Record
Temperature  
Mean Temperature 39 °F 26 °F  
Max Temperature 51 °F 36 °F 56 °F (2005)
Min Temperature 27 °F 15 °F -24 °F (1998)
Degree Days  
Heating Degree Days 26 39  
Month to date heating degree days 698 827  
Since 1 July heating degree days 2255 2661  
Cooling Degree Days 0 0  
Month to date cooling degree days 0 0  
Year to date cooling degree days 795 492  
Moisture  
Dew Point 6 °F    
Average Humidity 27    
Maximum Humidity 38    
Minimum Humidity 15    
Precipitation  
Precipitation 0.00 in 0.01 in 0.16 in (1999)
Month to date precipitation 0.01 0.29  
Year to date precipitation 8.83 13.34  
Sea Level Pressure  
Sea Level Pressure 29.97 in    
Wind  
Wind Speed 5 mph (WNW)    
Max Wind Speed 13 mph    
Max Gust Speed 14 mph    
Visibility 10 miles    
Events      
T = Trace of Precipitation, MM = Missing Value Source: NWS Daily Summary

Daily Weather History Graph

Daily Weather History Graph

Search for Another Location

Airport:

Trip Planner

Search our weather history database for the weather conditions in past years. The results will help you decide how hot, cold, wet, or windy it might be!

Date:

Astronomy

Dec. 21, 2012 Rise Set
Actual Time 7:40 AM MST 4:30 PM MST
Civil Twilight 7:06 AM MST 5:04 PM MST
Nautical Twilight 6:29 AM MST 5:40 PM MST
Astronomical Twilight 5:54 AM MST 6:16 PM MST
Moon 12:27 PM MST 1:20 AM MST
Length of Visible Light 9h 57m
Length of Day
8h 50m
Waxing Gibbous, 65% of the Moon is Illuminated
Dec 21
Waxing Gibbous
Dec 28
Full
Jan 4
Last Quarter
Jan 11
New
Jan 18
First Quarter

Hourly Weather History & Observations

Time (MST) Temp. Windchill Dew Point Humidity Pressure Visibility Wind Dir Wind Speed Gust Speed Precip Events Conditions
12:53 AM 35.1 °F - 5.0 °F 28% 30.01 in 10.0 mi Calm Calm - N/A   Clear
1:53 AM 35.1 °F 30.1 °F 3.9 °F 27% 30.00 in 10.0 mi WSW 5.8 mph - N/A   Clear
2:53 AM 30.9 °F 25.2 °F 5.0 °F 33% 30.01 in 10.0 mi ESE 5.8 mph - N/A   Clear
3:53 AM 30.9 °F 27.5 °F 6.1 °F 35% 30.01 in 10.0 mi SE 3.5 mph - N/A   Clear
5:53 AM 32.0 °F - 7.0 °F 35% 30.01 in 10.0 mi Calm Calm - N/A   Clear
6:53 AM 34.0 °F - 5.0 °F 30% 30.03 in 10.0 mi Calm Calm - N/A   Clear
7:53 AM 30.9 °F 27.5 °F 7.0 °F 37% 30.04 in 10.0 mi NW 3.5 mph - N/A   Clear
8:53 AM 34.0 °F 27.2 °F 5.0 °F 30% 30.04 in 10.0 mi WSW 8.1 mph - N/A   Clear
9:53 AM 36.0 °F - 12.0 °F 37% 30.02 in 10.0 mi Calm Calm - N/A   Clear
10:53 AM 46.0 °F - 7.0 °F 20% 29.98 in 10.0 mi Calm Calm - N/A   Clear
11:53 AM 46.0 °F 44.8 °F 8.1 °F 21% 29.94 in 10.0 mi SE 3.5 mph - N/A   Clear
12:53 PM 48.9 °F - 3.9 °F 16% 29.91 in 10.0 mi South 3.5 mph - N/A   Clear
1:53 PM 51.1 °F - 6.1 °F 16% 29.89 in 10.0 mi NNW 5.8 mph - N/A   Clear
2:53 PM 50.0 °F - 10.0 °F 20% 29.91 in 10.0 mi NNW 4.6 mph - N/A   Clear
3:53 PM 46.9 °F - 8.1 °F 21% 29.92 in 10.0 mi NNW 5.8 mph - N/A   Clear
4:53 PM 35.1 °F 30.1 °F 6.1 °F 30% 29.96 in 10.0 mi West 5.8 mph - N/A   Clear
5:53 PM 37.9 °F 32.1 °F 3.0 °F 23% 29.95 in 10.0 mi West 8.1 mph - N/A   Clear
6:53 PM 37.9 °F 31.5 °F 1.9 °F 22% 29.95 in 10.0 mi NW 9.2 mph - N/A   Clear
7:53 PM 34.0 °F 27.2 °F 1.9 °F 26% 29.96 in 10.0 mi WNW 8.1 mph - N/A   Clear
8:53 PM 35.1 °F 31.0 °F 1.9 °F 25% 29.95 in 10.0 mi NNW 4.6 mph - N/A   Clear
9:53 PM 30.9 °F 26.2 °F 5.0 °F 33% 29.95 in 10.0 mi WNW 4.6 mph - N/A   Clear
10:53 PM 34.0 °F 27.2 °F 3.9 °F 28% 29.92 in 10.0 mi NNW 8.1 mph - N/A   Clear
11:53 PM 32.0 °F 26.4 °F 7.0 °F 35% 29.93 in 10.0 mi NW 5.8 mph - N/A   Clear